CW4086 Weather Reports


time (UTC)temp
C
wind
direction
speed
KPH
gust
KPH
rain 1hr
cm
rain 24hr
cm
rain mn
cm
humidity
%
barometer
mb
20200531081103 13 257 0.0 0.0 0.00 0.00 0.00 71 1014.1
20200531080603 13 257 0.0 0.0 0.00 0.00 0.00 71 1014.2
20200531080106 13 257 0.0 0.0 0.00 0.00 0.00 71 1014.2
20200531075604 13 257 0.0 0.0 0.00 0.00 0.00 71 1014.2
20200531075104 13 257 0.0 0.0 0.00 0.00 0.00 71 1014.2
20200531074604 13 257 0.0 0.0 0.00 0.00 0.00 71 1014.2
20200531074104 13 257 0.0 0.0 0.00 0.00 0.00 71 1014.2
20200531073604 13 257 0.0 0.0 0.00 0.00 0.00 71 1014.2
20200531073104 13 257 0.0 0.0 0.00 0.00 0.00 70 1014.2
20200531072604 13 257 0.0 0.0 0.00 0.00 0.00 70 1014.2
20200531072105 13 257 0.0 0.0 0.00 0.00 0.00 70 1014.2
20200531071606 13 257 0.0 0.0 0.00 0.00 0.00 70 1014.2
20200531071104 13 257 0.0 0.0 0.00 0.00 0.00 70 1014.2
20200531070604 13 257 0.0 0.0 0.00 0.00 0.00 70 1014.2
20200531070104 13 257 0.0 0.0 0.00 0.00 0.00 69 1014.2
20200531065604 13 257 0.0 0.0 0.00 0.00 0.00 69 1014.2
20200531065104 14 257 0.0 0.0 0.00 0.00 0.00 69 1014.2
20200531064603 14 257 0.0 0.0 0.00 0.00 0.00 69 1014.2
20200531064104 14 257 0.0 0.0 0.00 0.00 0.00 69 1014.2
20200531063603 15 257 0.0 0.0 0.00 0.00 0.00 68 1014.2
20200531063104 15 257 0.0 0.0 0.00 0.00 0.00 68 1014.2
20200531062604 15 257 0.0 0.0 0.00 0.00 0.00 68 1014.2
20200531062106 15 257 0.0 0.0 0.00 0.00 0.00 68 1014.3
20200531061606 15 257 0.0 0.0 0.00 0.00 0.00 68 1014.5
20200531061104 15 257 0.0 0.0 0.00 0.00 0.00 67 1014.6
20200531060604 15 257 0.0 0.0 0.00 0.00 0.00 67 1014.7
20200531060104 15 257 0.0 0.0 0.00 0.00 0.00 67 1014.7
20200531055603 15 257 0.0 0.0 0.00 0.00 0.00 67 1014.7
20200531055104 15 257 0.0 0.0 0.00 0.00 0.00 66 1014.8
20200531054604 15 257 0.0 0.0 0.00 0.00 0.00 66 1014.8
20200531054104 15 257 0.0 0.0 0.00 0.00 0.00 66 1014.8
20200531053603 15 257 0.0 0.0 0.00 0.00 0.00 66 1014.9
20200531053104 15 257 0.0 0.0 0.00 0.00 0.00 66 1014.8
20200531052603 15 257 0.0 0.0 0.00 0.00 0.00 65 1014.9
20200531052104 15 257 0.0 0.0 0.00 0.00 0.00 65 1014.9
20200531051606 16 257 0.0 0.0 0.00 0.00 0.00 65 1014.9
20200531051104 16 257 0.0 0.0 0.00 0.00 0.00 65 1014.8
20200531050604 16 257 0.0 0.0 0.00 0.00 0.00 64 1014.8
20200531050104 16 257 0.0 0.0 0.00 0.00 0.00 64 1014.7
20200531045604 16 257 0.0 0.0 0.00 0.00 0.00 64 1014.7
20200531045104 16 257 0.0 0.0 0.00 0.00 0.00 64 1014.7
20200531044604 16 257 0.0 0.0 0.00 0.00 0.00 64 1014.7
20200531044104 16 257 0.0 0.0 0.00 0.00 0.00 63 1014.7
20200531043603 16 257 0.0 0.0 0.00 0.00 0.00 62 1014.7
20200531043104 16 257 0.0 0.0 0.00 0.00 0.00 62 1014.7
20200531042604 16 257 0.0 0.0 0.00 0.00 0.00 61 1014.6
20200531042103 17 261 0.0 4.8 0.00 0.00 0.00 59 1014.6
20200531041606 17 261 0.0 9.7 0.00 0.00 0.00 58 1014.5
20200531041104 17 259 1.6 9.7 0.00 0.00 0.00 58 1014.4
20200531040604 17 239 3.2 9.7 0.00 0.00 0.00 57 1014.4
20200531040104 17 267 3.2 9.7 0.00 0.00 0.00 57 1014.3
20200531035603 17 271 3.2 11.3 0.00 0.00 0.00 56 1014.2
20200531035104 17 259 4.8 11.3 0.00 0.00 0.00 56 1014.2
20200531034604 17 258 4.8 11.3 0.00 0.00 0.00 56 1014.2
20200531034104 17 274 4.8 11.3 0.00 0.00 0.00 56 1014.2
20200531033604 17 263 3.2 11.3 0.00 0.00 0.00 56 1014.1
20200531033104 18 217 1.6 4.8 0.00 0.00 0.00 55 1014.1
20200531032605 18 223 0.0 0.0 0.00 0.00 0.00 54 1014.0
20200531032104 18 228 0.0 0.0 0.00 0.00 0.00 55 1014.0
20200531031606 18 241 0.0 0.0 0.00 0.00 0.00 54 1014.0
20200531031103 18 245 0.0 0.0 0.00 0.00 0.00 54 1014.0
20200531030604 18 231 0.0 0.0 0.00 0.00 0.00 53 1013.8
20200531030104 19 225 0.0 0.0 0.00 0.00 0.00 52 1013.6
20200531025603 19 223 0.0 0.0 0.00 0.00 0.00 51 1013.5
20200531025104 20 227 0.0 0.0 0.00 0.00 0.00 50 1013.4
20200531024603 20 224 0.0 0.0 0.00 0.00 0.00 50 1013.4
20200531024103 20 224 0.0 0.0 0.00 0.00 0.00 50 1013.4
20200531023604 20 224 0.0 0.0 0.00 0.00 0.00 49 1013.4
20200531023104 20 213 0.0 4.8 0.00 0.00 0.00 48 1013.4
20200531022604 21 213 1.6 8.0 0.00 0.00 0.00 48 1013.4
20200531022104 21 214 1.6 8.0 0.00 0.00 0.00 47 1013.4
20200531021605 21 209 0.0 16.1 0.00 0.00 0.00 46 1013.4
20200531021104 21 185 4.8 16.1 0.00 0.00 0.00 44 1013.4
20200531020604 22 213 3.2 11.3 0.00 0.00 0.00 43 1013.4
20200531020104 22 216 4.8 11.3 0.00 0.00 0.00 43 1013.3
20200531015604 22 192 1.6 11.3 0.00 0.00 0.00 43 1013.2
20200531015104 22 207 4.8 11.3 0.00 0.00 0.00 43 1013.2
20200531014604 23 194 4.8 11.3 0.00 0.00 0.00 43 1013.2
20200531014104 23 209 4.8 12.9 0.00 0.00 0.00 43 1013.1
20200531013603 23 233 4.8 19.3 0.00 0.00 0.00 42 1013.0
20200531013104 23 220 3.2 19.3 0.00 0.00 0.00 41 1012.9
20200531012603 24 227 6.4 19.3 0.00 0.00 0.00 42 1012.9
20200531012104 23 247 3.2 16.1 0.00 0.00 0.00 43 1012.9
20200531011605 24 219 4.8 16.1 0.00 0.00 0.00 42 1012.8
20200531011104 24 243 6.4 16.1 0.00 0.00 0.00 43 1012.9
20200531010603 24 220 3.2 14.5 0.00 0.00 0.00 42 1012.9
20200531010104 24 225 3.2 19.3 0.00 0.00 0.00 44 1012.9
20200531005603 25 211 8.0 20.9 0.00 0.00 0.00 42 1013.0
20200531005104 25 236 4.8 20.9 0.00 0.00 0.00 42 1013.0
20200531004604 25 253 4.8 19.3 0.00 0.00 0.00 42 1012.9
20200531004104 25 224 6.4 16.1 0.00 0.00 0.00 40 1013.0
20200531003604 25 231 4.8 20.9 0.00 0.00 0.00 40 1012.9
20200531003104 25 221 3.2 20.9 0.00 0.00 0.00 42 1012.9
20200531002603 25 247 6.4 20.9 0.00 0.00 0.00 41 1012.9
20200531002103 25 257 8.0 16.1 0.00 0.00 0.00 42 1013.0
20200531001605 26 223 3.2 12.9 0.00 0.00 0.00 42 1012.9
20200531001105 26 240 3.2 16.1 0.00 0.00 0.00 42 1012.9
20200531000603 25 246 6.4 19.3 0.00 0.00 0.00 41 1013.0
20200531000104 25 204 6.4 19.3 0.00 0.00 0.00 42 1013.0
20200530235604 26 213 4.8 19.3 0.00 0.00 0.00 41 1013.1
20200530235104 26 227 6.4 19.3 0.00 0.00 0.00 41 1013.1
20200530234604 26 199 4.8 19.3 0.00 0.00 0.00 41 1013.3
20200530234104 26 239 8.0 19.3 0.00 0.00 0.00 39 1013.2
20200530233603 26 205 4.8 19.3 0.00 0.00 0.00 37 1013.4
20200530233103 27 225 8.0 14.5 0.00 0.00 0.00 35 1013.3
20200530232604 27 265 4.8 14.5 0.00 0.00 0.00 36 1013.4
20200530232103 27 225 6.4 20.9 0.00 0.00 0.00 35 1013.4
20200530231605 27 255 4.8 20.9 0.00 0.00 0.00 31 1013.5
20200530231103 27 266 6.4 16.1 0.00 0.00 0.00 29 1013.5
20200530230604 27 271 4.8 12.9 0.00 0.00 0.00 25 1013.5
20200530230104 27 266 1.6 16.1 0.00 0.00 0.00 24 1013.5
20200530225604 27 289 4.8 16.1 0.00 0.00 0.00 24 1013.6
20200530225104 27 246 3.2 19.3 0.00 0.00 0.00 26 1013.5
20200530224604 27 236 4.8 19.3 0.00 0.00 0.00 26 1013.5
20200530224103 27 269 4.8 14.5 0.00 0.00 0.00 26 1013.5
20200530223603 27 246 4.8 12.9 0.00 0.00 0.00 26 1013.5
20200530223104 27 275 6.4 12.9 0.00 0.00 0.00 24 1013.6
20200530222604 27 217 4.8 12.9 0.00 0.00 0.00 25 1013.6
20200530222104 27 255 1.6 11.3 0.00 0.00 0.00 28 1013.6
20200530221606 27 220 4.8 11.3 0.00 0.00 0.00 26 1013.7
20200530221104 27 241 3.2 8.0 0.00 0.00 0.00 28 1013.8
20200530220604 26 212 0.0 11.3 0.00 0.00 0.00 26 1013.9
20200530220104 26 222 4.8 11.3 0.00 0.00 0.00 27 1014.0
20200530215603 26 265 4.8 11.3 0.00 0.00 0.00 25 1014.1
20200530215104 26 201 3.2 11.3 0.00 0.00 0.00 25 1014.1
20200530214604 26 266 4.8 11.3 0.00 0.00 0.00 24 1014.1
20200530214104 26 221 4.8 9.7 0.00 0.00 0.00 26 1014.1
20200530213604 26 229 3.2 9.7 0.00 0.00 0.00 28 1014.1
20200530213103 26 231 4.8 14.5 0.00 0.00 0.00 28 1014.1
20200530212604 26 262 6.4 14.5 0.00 0.00 0.00 28 1014.1
20200530212104 26 335 0.0 8.0 0.00 0.00 0.00 27 1014.1
20200530211605 26 260 3.2 9.7 0.00 0.00 0.00 28 1014.1
20200530211104 25 238 1.6 12.9 0.00 0.00 0.00 29 1014.3
20200530210603 25 268 4.8 12.9 0.00 0.00 0.00 30 1014.5
20200530210104 25 275 1.6 11.3 0.00 0.00 0.00 30 1014.5
20200530205604 25 290 3.2 11.3 0.00 0.00 0.00 28 1014.6
20200530205104 25 252 3.2 14.5 0.00 0.00 0.00 31 1014.6
20200530204604 25 262 4.8 14.5 0.00 0.00 0.00 32 1014.7
20200530204104 25 277 4.8 8.0 0.00 0.00 0.00 30 1014.6
20200530203603 25 233 0.0 4.8 0.00 0.00 0.00 34 1014.6
20200530203104 25 213 1.6 9.7 0.00 0.00 0.00 35 1014.6
20200530202604 24 227 4.8 9.7 0.00 0.00 0.00 33 1014.6
20200530202104 24 259 0.0 4.8 0.00 0.00 0.00 41 1014.6
20200530201606 24 270 0.0 4.8 0.00 0.00 0.00 42 1014.6
20200530201104 23 298 0.0 4.8 0.00 0.00 0.00 41 1014.7
20200530200604 23 279 0.0 8.0 0.00 0.00 0.00 43 1014.9
20200530200105 23 268 1.6 11.3 0.00 0.00 0.00 41 1014.9
20200530195604 22 264 1.6 11.3 0.00 0.00 0.00 42 1014.9
20200530195104 22 255 1.6 11.3 0.00 0.00 0.00 44 1015.0
20200530194604 22 250 0.0 0.0 0.00 0.00 0.00 44 1015.0
20200530194104 22 259 0.0 0.0 0.00 0.00 0.00 48 1015.1
20200530193604 22 265 0.0 0.0 0.00 0.00 0.00 44 1015.2
20200530193104 22 265 0.0 0.0 0.00 0.00 0.00 44 1015.3
20200530192604 22 264 0.0 0.0 0.00 0.00 0.00 44 1015.2
20200530192103 22 250 0.0 0.0 0.00 0.00 0.00 44 1015.3
20200530191604 22 248 0.0 4.8 0.00 0.00 0.00 46 1015.4
20200530191106 21 247 0.0 8.0 0.00 0.00 0.00 50 1015.6
20200530190603 21 243 1.6 8.0 0.00 0.00 0.00 49 1015.6
20200530190104 21 269 1.6 8.0 0.00 0.00 0.00 47 1015.5
20200530185603 21 244 0.0 0.0 0.00 0.00 0.00 50 1015.6
20200530185103 21 243 0.0 3.2 0.00 0.00 0.00 50 1015.6
20200530184604 20 241 0.0 9.7 0.00 0.00 0.00 51 1015.5
20200530184105 20 233 1.6 9.7 0.00 0.00 0.00 50 1015.5
20200530183604 21 237 0.0 4.8 0.00 0.00 0.00 50 1015.5
20200530183104 21 267 1.6 11.3 0.00 0.00 0.00 49 1015.6
20200530182603 21 263 3.2 11.3 0.00 0.00 0.00 49 1015.6
20200530182103 21 269 0.0 8.0 0.00 0.00 0.00 49 1015.5
20200530181603 21 260 0.0 1.6 0.00 0.00 0.00 56 1015.5
20200530181105 21 260 0.0 4.8 0.00 0.00 0.00 52 1015.5
20200530180604 21 261 0.0 4.8 0.00 0.00 0.00 55 1015.5
20200530180104 20 265 0.0 4.8 0.00 0.00 0.00 58 1015.5
20200530175604 20 265 1.6 4.8 0.00 0.00 0.00 57 1015.4
20200530175104 20 271 3.2 4.8 0.00 0.00 0.00 58 1015.4
20200530174604 20 244 1.6 9.7 0.00 0.00 0.00 60 1015.4
20200530174103 20 262 1.6 9.7 0.00 0.00 0.00 60 1015.4
20200530173603 19 248 0.0 8.0 0.00 0.00 0.00 64 1015.3
20200530173104 19 262 3.2 8.0 0.00 0.00 0.00 62 1015.2
20200530172604 19 221 3.2 8.0 0.00 0.00 0.00 62 1015.3
20200530172104 19 220 1.6 4.8 0.00 0.00 0.00 62 1015.1
20200530171605 19 186 0.0 0.0 0.00 0.00 0.00 65 1015.2
20200530171106 18 184 0.0 0.0 0.00 0.00 0.00 65 1015.3
20200530170603 18 171 0.0 4.8 0.00 0.00 0.00 63 1015.2
20200530170104 18 136 1.6 4.8 0.00 0.00 0.00 64 1015.2
20200530165604 18 269 0.0 4.8 0.00 0.00 0.00 65 1015.1
20200530165104 18 269 3.2 4.8 0.00 0.00 0.00 63 1015.2
20200530164604 18 214 0.0 0.0 0.00 0.00 0.00 66 1015.2
20200530164104 18 209 0.0 0.0 0.00 0.00 0.00 66 1015.3
20200530163604 18 208 0.0 0.0 0.00 0.00 0.00 68 1015.3
20200530163103 18 207 0.0 0.0 0.00 0.00 0.00 67 1015.4
20200530162604 18 207 0.0 0.0 0.00 0.00 0.00 67 1015.4
20200530162104 18 206 0.0 0.0 0.00 0.00 0.00 67 1015.5
20200530161604 18 200 0.0 0.0 0.00 0.00 0.00 69 1015.5
20200530161106 17 269 0.0 0.0 0.00 0.00 0.00 71 1015.5
20200530160604 17 269 0.0 0.0 0.00 0.00 0.00 69 1015.5
20200530160104 17 269 0.0 4.8 0.00 0.00 0.00 71 1015.5
20200530155604 17 271 0.0 4.8 0.00 0.00 0.00 71 1015.6
20200530155104 17 261 1.6 8.0 0.00 0.00 0.00 72 1015.6
20200530154603 17 267 0.0 8.0 0.00 0.00 0.00 73 1015.8
20200530154104 17 259 3.2 11.3 0.00 0.00 0.00 73 1015.7
20200530153603 16 251 1.6 12.9 0.00 0.00 0.00 75 1015.7
20200530153104 16 263 4.8 12.9 0.00 0.00 0.00 75 1015.5
20200530152604 16 182 0.0 0.0 0.00 0.00 0.00 75 1015.5
20200530152105 16 165 0.0 0.0 0.00 0.00 0.00 75 1015.5
20200530151604 16 155 0.0 0.0 0.00 0.00 0.00 75 1015.5
20200530151105 15 155 0.0 0.0 0.00 0.00 0.00 75 1015.5
20200530150603 15 154 0.0 0.0 0.00 0.00 0.00 75 1015.5
20200530150104 15 154 0.0 0.0 0.00 0.00 0.00 76 1015.5
20200530145604 15 153 0.0 0.0 0.00 0.00 0.00 75 1015.4
20200530145104 15 128 0.0 0.0 0.00 0.00 0.00 75 1015.3
20200530144604 15 128 0.0 0.0 0.00 0.00 0.00 74 1015.1
20200530144104 15 128 0.0 0.0 0.00 0.00 0.00 74 1015.0
20200530143604 15 128 0.0 0.0 0.00 0.00 0.00 74 1015.0
20200530143104 15 128 0.0 4.8 0.00 0.00 0.00 74 1015.0
20200530142603 15 128 0.0 4.8 0.00 0.00 0.00 74 1015.0
20200530142103 15 127 0.0 4.8 0.00 0.00 0.00 75 1015.0
20200530141603 15 125 1.6 4.8 0.00 0.00 0.00 76 1015.0
20200530141105 15 144 1.6 4.8 0.00 0.00 0.00 76 1014.9
20200530140604 15 242 0.0 3.2 0.00 0.00 0.00 76 1015.0
20200530140104 15 243 0.0 1.6 0.00 0.00 0.00 77 1014.9
20200530135603 14 243 0.0 3.2 0.00 0.00 0.00 78 1014.9
20200530135104 14 243 0.0 3.2 0.00 0.00 0.00 78 1014.9
20200530134603 14 257 0.0 0.0 0.00 0.00 0.00 79 1014.9
20200530134103 14 257 0.0 0.0 0.00 0.00 0.00 80 1015.0
20200530133603 14 257 0.0 0.0 0.00 0.00 0.00 80 1015.0
20200530133104 14 258 0.0 0.0 0.00 0.00 0.00 80 1015.0
20200530132604 14 258 0.0 0.0 0.00 0.00 0.00 80 1015.0
20200530132104 14 258 0.0 0.0 0.00 0.00 0.00 80 1015.0
20200530131604 14 258 0.0 0.0 0.00 0.00 0.00 80 1015.1
20200530131103 14 258 0.0 0.0 0.00 0.00 0.00 81 1015.1
20200530130604 14 258 0.0 0.0 0.00 0.00 0.00 81 1015.1
20200530130104 14 258 0.0 0.0 0.00 0.00 0.00 81 1015.2
20200530125604 14 258 0.0 0.0 0.00 0.00 0.00 81 1015.1
20200530125103 14 258 0.0 0.0 0.00 0.00 0.00 81 1015.0
20200530124604 14 258 0.0 0.0 0.00 0.00 0.00 82 1015.0
20200530124104 14 258 0.0 0.0 0.00 0.00 0.00 82 1014.9
20200530123604 14 258 0.0 0.0 0.00 0.00 0.00 82 1014.9
20200530123105 14 258 0.0 0.0 0.00 0.00 0.00 82 1014.9
20200530122604 14 258 0.0 0.0 0.00 0.00 0.00 83 1014.9
20200530122104 14 258 0.0 0.0 0.00 0.00 0.00 83 1014.7
20200530121604 14 258 0.0 0.0 0.00 0.00 0.00 83 1014.7
20200530121103 14 258 0.0 0.0 0.00 0.00 0.00 83 1014.6
20200530120604 14 258 0.0 0.0 0.00 0.00 0.00 83 1014.6
20200530120104 14 258 0.0 0.0 0.00 0.00 0.00 83 1014.5
20200530115604 14 258 0.0 0.0 0.00 0.00 0.00 83 1014.5
20200530115104 14 258 0.0 0.0 0.00 0.00 0.00 83 1014.5
20200530114604 14 258 0.0 0.0 0.00 0.00 0.00 83 1014.5
20200530114103 14 258 0.0 0.0 0.00 0.00 0.00 84 1014.4
20200530113604 14 258 0.0 0.0 0.00 0.00 0.00 84 1014.5
20200530113104 14 258 0.0 0.0 0.00 0.00 0.00 84 1014.6
20200530112603 14 258 0.0 0.0 0.00 0.00 0.00 84 1014.5
20200530112103 14 258 0.0 0.0 0.00 0.00 0.00 84 1014.4
20200530111604 14 258 0.0 0.0 0.00 0.00 0.00 84 1014.4
20200530111104 14 259 0.0 0.0 0.00 0.00 0.00 85 1014.5
20200530110604 14 259 0.0 0.0 0.00 0.00 0.00 85 1014.4
20200530110105 15 259 0.0 0.0 0.00 0.00 0.00 85 1014.4
20200530105604 15 259 0.0 0.0 0.00 0.00 0.00 85 1014.4
20200530105104 15 259 0.0 0.0 0.00 0.00 0.00 85 1014.4
20200530104604 15 259 0.0 0.0 0.00 0.00 0.00 85 1014.4
20200530104104 15 259 0.0 0.0 0.00 0.00 0.00 85 1014.4
20200530103604 15 259 0.0 0.0 0.00 0.00 0.00 85 1014.6
20200530103104 15 259 0.0 0.0 0.00 0.00 0.00 85 1014.5
20200530102604 15 259 0.0 0.0 0.00 0.00 0.00 85 1014.5
20200530102104 15 259 0.0 0.0 0.00 0.00 0.00 85 1014.6
20200530101603 15 259 0.0 0.0 0.00 0.00 0.00 85 1014.8
20200530101105 15 259 0.0 0.0 0.00 0.00 0.00 85 1014.9
20200530100604 14 259 0.0 0.0 0.00 0.00 0.00 85 1014.9
20200530100105 14 259 0.0 4.8 0.00 0.00 0.00 85 1014.9
20200530095604 14 259 0.0 4.8 0.00 0.00 0.00 85 1014.9
20200530095104 14 259 1.6 3.2 0.00 0.00 0.00 85 1014.9
20200530094604 14 259 0.0 4.8 0.00 0.00 0.00 85 1014.9
20200530094104 14 259 1.6 4.8 0.00 0.00 0.00 85 1014.9
20200530093603 14 254 1.6 4.8 0.00 0.00 0.00 85 1014.9
20200530093104 14 252 3.2 8.0 0.00 0.00 0.00 85 1014.9
20200530092604 15 239 3.2 8.0 0.00 0.00 0.00 85 1014.9
20200530092104 15 257 1.6 8.0 0.00 0.00 0.00 85 1014.9
20200530091603 15 260 3.2 8.0 0.00 0.00 0.00 85 1014.9
20200530091105 15 256 3.2 8.0 0.00 0.00 0.00 85 1014.9
20200530090604 15 272 1.6 4.8 0.00 0.00 0.00 85 1014.8
20200530090104 15 272 1.6 4.8 0.00 0.00 0.00 85 1014.8
20200530085603 15 274 0.0 4.8 0.00 0.00 0.00 85 1014.8
20200530085103 15 274 1.6 4.8 0.00 0.00 0.00 85 1014.8
20200530084604 14 274 0.0 1.6 0.00 0.00 0.00 84 1014.8
20200530084104 15 274 0.0 1.6 0.00 0.00 0.00 84 1014.9
20200530083604 15 274 0.0 0.0 0.00 0.00 0.00 84 1014.9
20200530083104 15 274 0.0 0.0 0.00 0.00 0.00 84 1014.9
20200530082604 15 274 0.0 0.0 0.00 0.00 0.00 84 1015.2
20200530082104 15 274 0.0 0.0 0.00 0.00 0.00 84 1015.3
20200530081604 15 274 0.0 0.0 0.00 0.00 0.00 84 1015.4